Location: Erskine
(52.3216°N, 112.8806°W)
Time: 00:25:01
(UTC+00:00)

O/OREOS (USA 219) - Pass Details

Date: 05 December 2023
Orbit: 621 x 646 km, 72.0° (Epoch: 22 May)

Event Time Altitude Azimuth Distance (km) Brightness Sun altitude
Exits shadow 14:33:47 - 338° (NNW) 2,734 ? -7.3°
Reaches altitude 10° 14:36:08 10° 355° (N) 2,009 ? -7.0°
Maximum altitude 14:39:19 19° 40° (NE) 1,523 ? -6.6°
Drops below altitude 10° 14:42:29 10° 85° (E) 2,010 ? -6.2°
Sets 14:45:22 0° 104° (ESE) 2,918 ? -5.8°
